Alexandria Esle, LA

10:41 PM CDT on March 23, 2017 (GMT -0500)
Alexandria Esler Regional

Weather History for KESF - May, 2013

Change the Weather History Date:

Wednesday, May 22, 2013

  Actual Average Record
Temperature  
Mean Temperature 75 °F -  
Max Temperature 84 °F 85 °F 93 °F (2005)
Min Temperature 66 °F 62 °F 46 °F (2002)
Cooling Degree Days 10    
Growing Degree Days 25 (Base 50)    
Moisture  
Dew Point 68 °F    
Average Humidity 86    
Maximum Humidity 94    
Minimum Humidity 63    
Precipitation  
Precipitation 0.41 in - - ()
Sea Level Pressure  
Sea Level Pressure 29.91 in    
Wind  
Wind Speed 4 mph (SSE)    
Max Wind Speed 16 mph    
Max Gust Speed 22 mph    
Visibility 7 miles    
Events Rain , Thunderstorm    
Averages and records for this station are not official NWS values.
T = Trace of Precipitation, MM = Missing Value Source: NWS Daily Summary

Daily Weather History Graph

Daily Weather History Graph

Search for Another Location

Airport or City:

Trip Planner

Search our weather history database for the weather conditions in past years. The results will help you decide how hot, cold, wet, or windy it might be!

Date:

Astronomy

May. 22, 2013 Rise Set
Actual Time 6:08 AM CDT 8:03 PM CDT
Civil Twilight 5:41 AM CDT 8:30 PM CDT
Nautical Twilight 5:09 AM CDT 9:03 PM CDT
Astronomical Twilight 4:34 AM CDT 9:38 PM CDT
Moon 5:33 PM CDT (5/22) 4:02 AM CDT (5/22)
Length of Visible Light 14h 48m
Length of Day
13h 54m
Waxing Gibbous, 91% of the Moon is Illuminated
May 22
Waxing Gibbous
May 24
Full
May 31
Last Quarter
Jun 8
New
Jun 16
First Quarter

Hourly Weather History & Observations

Time (CDT) Temp. Heat Index Dew Point Humidity Pressure Visibility Wind Dir Wind Speed Gust Speed Precip Events Conditions
12:36 AM 66.2 °F - 64.4 °F 94% 29.93 in 7.0 mi ENE 4.6 mph - 0.17 in Rain , Thunderstorm Thunderstorms and Rain
12:53 AM 66.9 °F - 64.0 °F 90% 29.90 in 7.0 mi ENE 9.2 mph - 0.20 in Rain , Thunderstorm Rain
1:38 AM 66.2 °F - 64.4 °F 94% 29.91 in 10.0 mi East 4.6 mph - 0.01 in   Overcast
1:53 AM 66.9 °F - 64.0 °F 90% 29.90 in 10.0 mi ESE 3.5 mph - 0.01 in   Overcast
2:02 AM 66.2 °F - 64.4 °F 94% 29.92 in 10.0 mi Calm Calm - N/A Thunderstorm Overcast
2:27 AM 66.2 °F - 64.4 °F 94% 29.90 in 5.0 mi Variable 3.5 mph - 0.09 in Rain Rain
2:53 AM 66.9 °F - 64.0 °F 90% 29.86 in 10.0 mi SE 10.4 mph - 0.11 in Rain Light Rain
2:56 AM 66.2 °F - 64.4 °F 94% 29.86 in 10.0 mi SE 9.2 mph - 0.00 in Rain , Thunderstorm Light Rain
3:11 AM 66.2 °F - 64.4 °F 94% 29.88 in 10.0 mi SSE 5.8 mph - 0.00 in Thunderstorm Mostly Cloudy
3:40 AM 66.2 °F - 64.4 °F 94% 29.89 in 9.0 mi SSE 15.0 mph 20.7 mph 0.05 in Rain Light Rain
3:53 AM 66.9 °F - 64.9 °F 93% 29.82 in 8.0 mi SSE 16.1 mph 21.9 mph 0.08 in Rain Light Rain
4:53 AM 69.1 °F - 64.9 °F 87% 29.79 in 10.0 mi South 4.6 mph - 0.00 in   Partly Cloudy
5:53 AM 69.1 °F - 66.0 °F 90% 29.81 in 10.0 mi NNW 3.5 mph - N/A   Scattered Clouds
6:53 AM 68.0 °F - 64.9 °F 90% 29.88 in 10.0 mi Calm Calm - N/A   Mostly Cloudy
7:09 AM 68.0 °F - 64.4 °F 88% 29.89 in 10.0 mi East 3.5 mph - N/A   Overcast
7:53 AM 69.1 °F - 64.9 °F 87% 29.91 in 10.0 mi Calm Calm - N/A   Overcast
8:53 AM 69.1 °F - 64.9 °F 87% 29.94 in 10.0 mi Calm Calm - 0.00 in   Overcast
9:53 AM 71.1 °F - 66.0 °F 84% 29.95 in 10.0 mi Calm Calm - N/A   Overcast
10:15 AM 73.4 °F - 66.2 °F 78% 29.96 in 10.0 mi Calm Calm - 0.01 in   Overcast
10:53 AM 75.0 °F - 66.0 °F 73% 29.96 in 10.0 mi Calm Calm - 0.01 in   Overcast
11:53 AM 75.9 °F - 66.9 °F 74% 29.96 in 10.0 mi SSW 5.8 mph - N/A   Overcast
12:53 PM 77.0 °F - 68.0 °F 74% 29.95 in 10.0 mi South 6.9 mph - N/A   Mostly Cloudy
1:53 PM 80.1 °F 82.9 °F 69.1 °F 69% 29.93 in 10.0 mi SW 3.5 mph - N/A   Scattered Clouds
2:11 PM 80.6 °F 83.9 °F 69.8 °F 70% 29.93 in 10.0 mi Variable 6.9 mph - N/A   Mostly Cloudy
2:53 PM 81.0 °F 84.4 °F 70.0 °F 69% 29.91 in 10.0 mi Variable 5.8 mph - N/A   Mostly Cloudy
3:02 PM 82.4 °F 86.3 °F 69.8 °F 66% 29.91 in 10.0 mi SW 6.9 mph - N/A   Scattered Clouds
3:53 PM 82.9 °F 87.0 °F 70.0 °F 65% 29.89 in 10.0 mi SSW 8.1 mph - N/A   Mostly Cloudy
4:53 PM 84.0 °F 89.0 °F 71.1 °F 65% 29.89 in 10.0 mi SW 8.1 mph - N/A   Scattered Clouds
5:53 PM 84.9 °F 90.1 °F 71.1 °F 63% 29.89 in 10.0 mi South 3.5 mph - N/A   Partly Cloudy
6:53 PM 82.9 °F 88.0 °F 72.0 °F 69% 29.89 in 10.0 mi SSE 5.8 mph - N/A   Partly Cloudy
7:53 PM 78.1 °F - 72.0 °F 81% 29.91 in 10.0 mi SE 3.5 mph - N/A   Clear
8:53 PM 73.9 °F - 72.0 °F 93% 29.91 in 2.5 mi Calm Calm - N/A   Clear
9:02 PM 73.4 °F - 71.6 °F 94% 29.92 in 5.0 mi Calm Calm - N/A   Clear
9:20 PM 73.4 °F - 71.6 °F 94% 29.92 in 2.0 mi Calm Calm - N/A   Clear
9:28 PM 73.4 °F - 71.6 °F 94% 29.92 in 5.0 mi Calm Calm - N/A   Clear
9:53 PM 73.0 °F - 71.1 °F 93% 29.93 in 2.5 mi Calm Calm - N/A   Clear
10:02 PM 73.4 °F - 71.6 °F 94% 29.94 in 5.0 mi Calm Calm - N/A   Clear
10:18 PM 73.4 °F - 69.8 °F 88% 29.94 in 2.0 mi Calm Calm - N/A   Clear
10:25 PM 71.6 °F - 69.8 °F 94% 29.95 in 1.0 mi Calm Calm - N/A   Clear
10:32 PM 71.6 °F - 69.8 °F 94% 29.95 in 0.8 mi Calm Calm - N/A   Clear
10:45 PM 71.6 °F - 69.8 °F 94% 29.95 in 1.2 mi Calm Calm - N/A   Clear
10:53 PM 72.0 °F - 70.0 °F 93% 29.95 in 1.2 mi Calm Calm - N/A   Clear
11:22 PM 71.6 °F - 69.8 °F 94% 29.95 in 0.8 mi Calm Calm - N/A   Mist
11:53 PM 71.1 °F - 69.1 °F 93% 29.95 in 0.8 mi Calm Calm - N/A   Mist